Regional Weather Roundup
Issued by NWS Upton, NY

Current Version | Previous Version | Graphics & Text | Print | Product List | Glossary Off
Versions: 1 2 3 4 5 6 7 8 9 10 11 12 13 14 15 16 17 18 19 20 21 22 23 24 25 26 27
000 ASUS41 KOKX 272009 RWROKX REGIONAL WEATHER ROUNDUP NATIONAL WEATHER SERVICE NEW YORK NY 400 PM EDT TUE JUN 27 2017 NOTE: "FAIR" INDICATES FEW OR NO CLOUDS BELOW 12,000 FEET WITH NO SIGNIFICANT WEATHER AND/OR OBSTRUCTIONS TO VISIBILITY. NYZ071-072-176-178-NJZ106-104-272100- NEW YORK CITY METRO AREA CITY SKY/WX TMP DP RH WIND PRES REMARKS Central Park PTSUNNY 73 56 54 MISG 29.96R Bronx Bot Gard N/A 77 52 41 SW10 29.93F LaGuardia APRT PTSUNNY 78 53 41 SW14G22 29.92S Kennedy INTL PTSUNNY 74 61 63 S13 29.96R Breezy Point N/A 66 N/A N/A S10 N/A Newark/Liberty PTSUNNY 78 55 44 SW12G25 29.93S Teterboro PTSUNNY 77 51 40 W10G18 29.91S $$ NYZ177-179-078>081-272100- LONG ISLAND NEW YORK CITY SKY/WX TMP DP RH WIND PRES REMARKS Jones Beach N/A 68 N/A N/A S9 N/A Matinecock PT NOT AVBL Farmingdale NOT AVBL MacArthur/ISP MOSUNNY 75 60 59 S12 29.93S Shirley SUNNY 75 58 55 S12 29.94F Mt Sinai Harb N/A N/A N/A N/A NE3 N/A Westhampton SUNNY 74 61 63 S9 29.96F East Hampton FAIR 72 63 73 S7 29.94F Montauk NOT AVBL $$ NYZ052-065-067-272100- HUDSON VALLEY CITY SKY/WX TMP DP RH WIND PRES REMARKS White Plains PTSUNNY 76 49 38 S8G16 29.92F Larchmont Harb N/A 73 N/A N/A S8G14 N/A Croton O-T Hud N/A 75 N/A N/A SW10 N/A Newburgh MOSUNNY 73 52 46 W16 29.92F Montgomery CLOUDY 68 45 43 SW13G24 29.92R Poughkeepsie MOSUNNY 76 47 35 SW14G22 29.89F Albany CLOUDY 64 55 72 N3 29.90S $$ NJZ001-105-106-008-010-013-015-019>022-104-272100- NEW JERSEY CITY SKY/WX TMP DP RH WIND PRES REMARKS Newark/Liberty PTSUNNY 78 55 44 SW12G25 29.93S Teterboro PTSUNNY 77 51 40 W10G18 29.91S Caldwell MOSUNNY 79 50 36 VRB7G17 29.93F Somerville MOSUNNY 76 52 43 VRB5 29.92S Linden MOCLDY 76 53 44 W5 29.93F Perth Amboy N/A 73 N/A N/A S10 N/A Sussex PTSUNNY 67 54 63 S5 29.96S THUNDER Andover N/A 68 49 50 MISG 29.96R Trenton MOSUNNY 76 55 48 SW13G20 29.94F Millville MOSUNNY 80 56 43 W12 29.96F Atlantic City NOT AVBL Wrightstown MOSUNNY 77 55 46 W12 29.92F Toms River MOSUNNY 81 50 33 W9 29.95F Belmar CLOUDY 73 52 47 VRB5 29.97F $$ PAZ047>061-062-071-272100- EASTERN PENNSYLVANIA CITY SKY/WX TMP DP RH WIND PRES REMARKS Philadelphia PTSUNNY 80 48 32 W16 29.95F Allentown MOSUNNY 72 51 47 N9 29.95S Scranton PTSUNNY 66 53 63 VRB7 29.97R $$ CTZ002-004>006-009-010-012-RIZ004-006-007-MAZ004-011-015-272100- SOUTHERN NEW ENGLAND IN CT CITY SKY/WX TMP DP RH WIND PRES REMARKS Bradley INTL PTSUNNY 71 61 70 SW7 29.90F Hartford PTSUNNY 74 57 55 S10 29.90S THUNDER Danbury NOT AVBL Wtrbury/Oxford PTSUNNY 66 52 59 MISG 29.93F Bridgeport SUNNY 74 59 59 S7 29.92F Meriden SUNNY 75 57 53 S16G23 29.90F New Haven MOSUNNY 73 60 63 S8 29.92F Chester FAIR 73 59 60 S12G18 29.93F Groton CLOUDY 71 61 70 S16 29.93F Wilimantic PTSUNNY 75 59 57 S13 29.91F IN RI CITY SKY/WX TMP DP RH WIND PRES REMARKS Providence MOSUNNY 75 54 47 S22G30 29.93F Block Island CLOUDY 70 59 68 S14 29.96F Westerly CLOUDY 69 60 73 S13 29.95F IN MA CITY SKY/WX TMP DP RH WIND PRES REMARKS Boston PTSUNNY 75 54 47 S25G33 29.91F Worcester CLOUDY 62 56 80 SW3 29.93F THUNDER Westfield MOSUNNY 67 59 75 SE8 29.91S Provincetown MOSUNNY 73 61 65 S14G25 29.95F Nantucket MOSUNNY 67 63 87 SW9 30.00F $$ ANZ330-335-338-340-345-350-353-355-272100- COASTAL MARINE OBSERVATIONS STATION/POSITION TIME SKY/WX TEMP WIND PRES VSBY WAVE AIR SEA DIR/SP/G HT/PER (UTC) (F) (DEG/KT/KT) (MB) (MI) (FT/S) NY HARB ENTRANCE 1950 68 70 160/ 8/ 10 1014.1 1/ 9 20 S FIRE ISLAND 1950 69 71 210/ 6/ 6 1013.9 2/ 8 GREAT SOUTH BAY 1930 69 77 200/ 12/ 14 N/A 23 SSW MONTAUK P 1950 68 66 1014.3 2/ 4 15 E BARNEGAT LI 1930 69 N/A 2/ 6 HUDSON CANYON 1950 70 69 200/ 8/ 10 1014.5 2/ 7 KINGS POINT 1948 74 64 280/ 11/ 14 1013.3 EXECUTION ROCKS 1945 73 200/ 10/ 14 N/A CENTRAL LI SOUND 1945 68 30/ 2/ 4 N/A 1 EASTERN LI SOUND NOT AVBL ROBBINS REEF 1936 160/ 11/ 12 1014.4 $$ >>>>>>>>>>>>>>>>>>>>>>>>>>>> KEY <<<<<<<<<<<<<<<<<<<<<<<<<<< > < > SKY/WX - Sky Condition/Present Weather < > TMP - Temperature in Fahrenheit < > DP - Dew Point in Fahrenheit < > RH - Relative Humidity in Percent < > WIND - Direction (from) and Speed in MPH < > PRES - Mean Sea Level Pressure (inches of Hg) < > WCI - Wind Chill Index < > VSB - VISIBILITY IN MILES < > HX - HEAT INDEX < > TC - TEMPERATURE IN CELSIUS < > VRB - VARIABLE WIND DIRECTION < > < >>>>>>>>>>>>>>>>>>>>>>>>>>>> KEY <<<<<<<<<<<<<<<<<<<<<<<<<<<

USA.gov is the U.S. government's official web portal to all federal, state and local government web resources and services.